This is the latest recevied weather packets stored in our database for station/object KY4OP-13. If no packets are shown the sender has not sent any weather packets the latest 10 day(s).
| Time | Temp. | Humidity | Pressure | Rain* | Wind** | Luminosity | Snow |
|---|---|---|---|---|---|---|---|
| 1777823420 | 10.56° C | 43% | 1020 hPa | 0 mm | - | - | - |
| 1777823118 | 11.67° C | 39% | 1020.1 hPa | 0 mm | - | - | - |
| 1777822815 | 11.67° C | 42% | 1020.2 hPa | 0 mm | - | - | - |
| 1777822513 | 12.78° C | 39% | 1020.2 hPa | 0 mm | - | - | - |
| 1777822210 | 12.22° C | 38% | 1020.2 hPa | 0 mm | - | - | - |
| 1777821908 | 12.78° C | 39% | 1020.3 hPa | 0 mm | - | - | - |
| 1777821605 | 12.22° C | 41% | 1020.3 hPa | 0 mm | - | - | - |
| 1777821304 | 11.67° C | 41% | 1020.3 hPa | 0 mm | - | - | - |
| 1777821000 | 10.56° C | 43% | 1020.2 hPa | 0 mm | - | - | - |
| 1777820696 | 10.56° C | 45% | 1020.5 hPa | 0 mm | - | - | - |
| 1777820392 | 11.11° C | 41% | 1020.4 hPa | 0 mm | - | - | - |
| 1777820090 | 10.56° C | 40% | 1020.2 hPa | 0 mm | - | - | - |
| 1777819787 | 11.67° C | 41% | 1020.3 hPa | 0 mm | - | - | - |
| 1777819485 | 11.67° C | 40% | 1020.4 hPa | 0 mm | - | - | - |
| 1777819183 | 11.67° C | 39% | 1020.2 hPa | 0 mm | - | - | - |
| 1777818879 | 11.11° C | 43% | 1020.4 hPa | 0 mm | - | - | - |
| 1777818575 | 11.11° C | 40% | 1020.4 hPa | 0 mm | - | - | - |
| 1777818273 | 10.56° C | 40% | 1020.3 hPa | 0 mm | - | - | - |
| 1777817963 | 10.56° C | 43% | 1020.5 hPa | 0 mm | - | - | - |
| 1777817661 | 10.56° C | 40% | 1020.5 hPa | 0 mm | - | - | - |
| 1777817357 | 10.56° C | 42% | 1020.4 hPa | 0 mm | - | - | - |
| 1777817054 | 10.56° C | 42% | 1020.4 hPa | 0 mm | - | - | - |
| 1777816744 | 10° C | 43% | 1020.3 hPa | 0 mm | - | - | - |
| 1777816443 | 10° C | 42% | 1020.5 hPa | 0 mm | - | - | - |
| 1777816140 | 10° C | 43% | 1020.3 hPa | 0 mm | - | - | - |
* Rain latest hour (hover to see other rain measurements)
** Current wind speed in m/s (hover to see current wind gust speed)